^^
Datos históricos de la estación: Murcia-Puente Tocinos
Diario Informe para Octubre 21, 2019 Unidades:  Métrico    Inglés   Ambas
Diario Semanal Mensual Anual Configurable
  Máximo: Mínimo: Media:
Temperatura: 19.3 °C 11.8 °C 15.8 °C
Punto de rocio: 11.6 °C 6.7 °C 8.7 °C
Humedad: 78% 44% 64%
Velocidad viento: 9.7km/h 0.0km/h 5.4km/h
Racha viento: 16.1km/h - -
Viento- - SSE
Presión: 1016.6 hPa 1013.8 hPa -
Precipitación: 0.0 mm    
Historical Graphs
 
 
Tabla de datos para Octubre 21, 2019
Hora Temperatura Punto de rocio Presión Viento Velocidad viento Racha viento Humedad Intensidad lluvia(por hora) Nubes
00:00 15.7 °C 11.1 °C 1013.8 hPa SE 3.2 km/h 11.3 km/h 74% 0.0 mm RA
00:05 15.8 °C 11.4 °C 1013.8 hPa SSE 4.8 km/h 11.3 km/h 75% 0.0 mm RA
00:10 15.8 °C 11.4 °C 1014.0 hPa South 4.8 km/h 8.0 km/h 75% 0.0 mm FEW
00:15 15.9 °C 11.4 °C 1014.0 hPa SSE 4.8 km/h 8.0 km/h 75% 0.0 mm FEW
00:20 15.7 °C 11.5 °C 1014.0 hPa SE 4.8 km/h 11.3 km/h 76% 0.0 mm SCT
00:25 15.5 °C 11.3 °C 1014.2 hPa ESE 4.8 km/h 9.7 km/h 76% 0.0 mm SCT
00:30 15.4 °C 11.4 °C 1014.2 hPa SE 4.8 km/h 9.7 km/h 77% 0.0 mm SCT
00:35 15.4 °C 11.4 °C 1014.2 hPa SSE 4.8 km/h 9.7 km/h 77% 0.0 mm SCT
00:40 15.4 °C 11.4 °C 1014.2 hPa South 4.8 km/h 9.7 km/h 77% 0.0 mm SCT
00:45 15.4 °C 11.4 °C 1014.2 hPa South 4.8 km/h 8.0 km/h 77% 0.0 mm SCT
00:50 15.5 °C 11.5 °C 1014.2 hPa South 4.8 km/h 8.0 km/h 77% 0.0 mm FEW
00:55 15.6 °C 11.6 °C 1014.3 hPa SSW 4.8 km/h 8.0 km/h 77% 0.0 mm FEW
01:00 15.6 °C 11.4 °C 1014.3 hPa SSW 4.8 km/h 8.0 km/h 76% 0.0 mm FEW
01:05 15.6 °C 11.2 °C 1014.3 hPa SSW 3.2 km/h 8.0 km/h 75% 0.0 mm FEW
01:10 15.7 °C 11.3 °C 1014.2 hPa SSW 3.2 km/h 8.0 km/h 75% 0.0 mm FEW
01:15 15.6 °C 11.4 °C 1014.2 hPa South 3.9 km/h 7.4 km/h 76% 0.0 mm FEW
01:20 15.4 °C 11.4 °C 1014.6 hPa South 3.9 km/h 7.4 km/h 77% 0.0 mm CLR
01:25 15.3 °C 11.3 °C 1014.6 hPa South 3.2 km/h 8.0 km/h 77% 0.0 mm CLR
01:30 15.3 °C 11.3 °C 1014.6 hPa SSW 3.2 km/h 9.7 km/h 77% 0.0 mm CLR
01:35 15.3 °C 11.1 °C 1014.6 hPa SW 4.8 km/h 11.3 km/h 76% 0.0 mm CLR
01:40 15.2 °C 10.6 °C 1014.7 hPa WSW 4.8 km/h 9.7 km/h 74% 0.0 mm CLR
01:45 15.1 °C 10.5 °C 1014.7 hPa SW 4.8 km/h 12.9 km/h 74% 0.0 mm CLR
01:50 15.1 °C 10.3 °C 1014.7 hPa SW 4.8 km/h 11.3 km/h 73% 0.0 mm CLR
01:55 15.1 °C 10.3 °C 1014.7 hPa SW 8.0 km/h 8.0 km/h 73% 0.0 mm CLR
02:00 15.1 °C 10.1 °C 1014.7 hPa SW 8.0 km/h 8.0 km/h 72% 0.0 mm FEW
02:05 15.2 °C 10.0 °C 1014.7 hPa SW 3.2 km/h 8.0 km/h 71% 0.0 mm CLR
02:10 15.2 °C 9.9 °C 1014.7 hPa SW 3.2 km/h 8.0 km/h 71% 0.0 mm CLR
02:15 15.1 °C 9.9 °C 1014.7 hPa SW 3.2 km/h 6.4 km/h 71% 0.0 mm CLR
02:20 15.1 °C 9.9 °C 1014.7 hPa SSW 3.2 km/h 8.0 km/h 71% 0.0 mm CLR
02:25 15.0 °C 9.8 °C 1014.7 hPa South 3.2 km/h 8.0 km/h 71% 0.0 mm CLR
02:30 14.9 °C 9.9 °C 1014.7 hPa SSE 3.2 km/h 4.8 km/h 72% 0.0 mm CLR
02:35 14.8 °C 9.6 °C 1014.7 hPa SSE 3.2 km/h 4.8 km/h 71% 0.0 mm CLR
02:40 14.8 °C 9.8 °C 1014.6 hPa South 3.2 km/h 8.0 km/h 72% 0.0 mm CLR
02:45 14.8 °C 9.8 °C 1014.6 hPa SSW 3.2 km/h 6.4 km/h 72% 0.0 mm CLR
02:50 14.7 °C 9.7 °C 1014.6 hPa SW 3.2 km/h 8.0 km/h 72% 0.0 mm CLR
02:55 14.6 °C 9.6 °C 1014.6 hPa SW 3.2 km/h 9.7 km/h 72% 0.0 mm CLR
03:00 14.5 °C 9.3 °C 1014.6 hPa SW 3.2 km/h 8.0 km/h 71% 0.0 mm FEW
03:05 14.5 °C 9.1 °C 1014.6 hPa SW 4.8 km/h 8.0 km/h 70% 0.0 mm CLR
03:10 14.5 °C 8.9 °C 1014.6 hPa WSW 5.8 km/h 3.9 km/h 69% 0.0 mm CLR
03:15 14.5 °C 8.7 °C 1014.6 hPa WSW 3.2 km/h 8.0 km/h 68% 0.0 mm CLR
03:20 14.5 °C 8.4 °C 1014.6 hPa WSW 3.2 km/h 6.4 km/h 67% 0.0 mm CLR
03:25 14.4 °C 8.2 °C 1014.7 hPa WSW 3.2 km/h 8.0 km/h 66% 0.0 mm CLR
03:30 14.4 °C 8.1 °C 1014.7 hPa WSW 3.2 km/h 8.0 km/h 66% 0.0 mm CLR
03:35 14.3 °C 8.2 °C 1014.7 hPa WSW 3.2 km/h 8.0 km/h 67% 0.0 mm CLR
03:40 14.1 °C 8.1 °C 1014.5 hPa WSW 3.2 km/h 9.7 km/h 67% 0.0 mm CLR
03:45 13.9 °C 7.9 °C 1014.5 hPa SW 4.8 km/h 9.7 km/h 67% 0.0 mm CLR
03:50 13.9 °C 7.7 °C 1014.5 hPa SSW 4.8 km/h 9.7 km/h 66% 0.0 mm CLR
03:55 14.0 °C 7.8 °C 1014.5 hPa South 4.8 km/h 11.3 km/h 66% 0.0 mm CLR
04:00 14.1 °C 7.8 °C 1014.5 hPa SSE 4.8 km/h 11.3 km/h 66% 0.0 mm FEW
04:05 13.9 °C 7.5 °C 1014.5 hPa South 8.0 km/h 14.5 km/h 65% 0.0 mm CLR
04:10 13.9 °C 7.7 °C 1014.4 hPa SSW 8.0 km/h 12.9 km/h 66% 0.0 mm CLR
04:15 13.9 °C 7.4 °C 1014.4 hPa SW 8.0 km/h 9.7 km/h 65% 0.0 mm CLR
04:20 13.9 °C 7.4 °C 1014.4 hPa SW 8.0 km/h 11.3 km/h 65% 0.0 mm CLR
04:25 13.9 °C 7.4 °C 1014.3 hPa SW 8.0 km/h 11.3 km/h 65% 0.0 mm CLR
04:30 13.8 °C 7.6 °C 1014.3 hPa SW 6.9 km/h 9.3 km/h 66% 0.0 mm CLR
04:35 13.7 °C 7.7 °C 1014.3 hPa SW 8.0 km/h 9.7 km/h 67% 0.0 mm CLR
04:40 13.7 °C 7.7 °C 1014.3 hPa SW 8.0 km/h 11.3 km/h 67% 0.0 mm CLR
04:45 13.7 °C 7.4 °C 1014.3 hPa SW 8.0 km/h 9.7 km/h 66% 0.0 mm CLR
04:50 13.6 °C 7.6 °C 1014.3 hPa SW 8.0 km/h 9.7 km/h 67% 0.0 mm CLR
04:55 13.6 °C 7.6 °C 1014.4 hPa WSW 8.0 km/h 9.7 km/h 67% 0.0 mm CLR
05:00 13.6 °C 7.8 °C 1014.4 hPa SW 8.0 km/h 8.0 km/h 68% 0.0 mm FEW
05:05 13.6 °C 7.8 °C 1014.4 hPa SW 3.2 km/h 8.0 km/h 68% 0.0 mm CLR
05:10 13.4 °C 7.6 °C 1014.3 hPa SSW 3.2 km/h 8.0 km/h 68% 0.0 mm CLR
05:15 13.4 °C 7.8 °C 1014.3 hPa SSW 4.8 km/h 9.7 km/h 69% 0.0 mm CLR
05:20 13.4 °C 7.8 °C 1014.3 hPa SW 4.8 km/h 8.0 km/h 69% 0.0 mm CLR
05:25 13.4 °C 7.8 °C 1014.2 hPa WSW 4.8 km/h 8.0 km/h 69% 0.0 mm CLR
05:30 13.4 °C 8.1 °C 1014.2 hPa WSW 4.8 km/h 8.0 km/h 70% 0.0 mm CLR
05:35 13.3 °C 7.9 °C 1014.2 hPa SW 3.2 km/h 9.7 km/h 70% 0.0 mm CLR
05:40 13.3 °C 8.1 °C 1014.2 hPa SW 3.2 km/h 12.9 km/h 71% 0.0 mm CLR
05:45 13.2 °C 7.8 °C 1014.2 hPa SW 8.0 km/h 11.3 km/h 70% 0.0 mm CLR
05:50 13.1 °C 7.6 °C 1014.2 hPa SW 8.0 km/h 12.9 km/h 69% 0.0 mm CLR
05:55 13.1 °C 7.6 °C 1014.2 hPa SW 8.0 km/h 12.9 km/h 69% 0.0 mm CLR
06:00 13.1 °C 7.6 °C 1014.2 hPa SW 8.0 km/h 11.3 km/h 69% 0.0 mm FEW
06:05 13.1 °C 7.6 °C 1014.2 hPa SW 8.0 km/h 11.3 km/h 69% 0.0 mm CLR
06:10 13.1 °C 7.7 °C 1014.2 hPa SW 8.0 km/h 11.3 km/h 70% 0.0 mm CLR
06:15 12.9 °C 7.6 °C 1014.2 hPa SSW 8.0 km/h 9.7 km/h 70% 0.0 mm CLR
06:20 12.9 °C 7.6 °C 1014.2 hPa SSW 8.0 km/h 9.7 km/h 70% 0.0 mm CLR
06:25 12.9 °C 7.6 °C 1014.4 hPa SSW 8.0 km/h 9.7 km/h 70% 0.0 mm CLR
06:30 12.7 °C 7.2 °C 1014.4 hPa South 8.0 km/h 9.7 km/h 69% 0.0 mm CLR
06:35 12.6 °C 7.1 °C 1014.4 hPa South 8.0 km/h 12.9 km/h 69% 0.0 mm CLR
06:40 12.4 °C 6.9 °C 1014.6 hPa South 8.0 km/h 14.5 km/h 69% 0.0 mm CLR
06:45 12.3 °C 6.8 °C 1014.6 hPa SSW 9.7 km/h 16.1 km/h 69% 0.0 mm CLR
06:50 12.3 °C 6.8 °C 1014.6 hPa SSW 9.7 km/h 11.3 km/h 69% 0.0 mm CLR
06:55 12.3 °C 6.8 °C 1014.5 hPa SSW 8.0 km/h 11.3 km/h 69% 0.0 mm CLR
07:00 12.4 °C 6.9 °C 1014.5 hPa SW 8.0 km/h 11.3 km/h 69% 0.0 mm FEW
07:05 12.4 °C 6.9 °C 1014.5 hPa SW 8.0 km/h 9.7 km/h 69% 0.0 mm CLR
07:10 12.4 °C 6.9 °C 1014.4 hPa WSW 8.0 km/h 9.7 km/h 69% 0.0 mm CLR
07:15 12.4 °C 6.9 °C 1014.4 hPa WSW 4.8 km/h 9.7 km/h 69% 0.0 mm CLR
07:20 12.4 °C 7.1 °C 1014.4 hPa SW 4.8 km/h 8.0 km/h 70% 0.0 mm FEW
07:25 12.4 °C 7.1 °C 1014.6 hPa SW 3.2 km/h 9.7 km/h 70% 0.0 mm FEW
07:30 12.4 °C 7.1 °C 1014.6 hPa SW 3.2 km/h 9.7 km/h 70% 0.0 mm FEW
07:35 12.4 °C 7.3 °C 1014.6 hPa SW 8.0 km/h 11.3 km/h 71% 0.0 mm FEW
07:40 12.3 °C 7.2 °C 1014.8 hPa SW 8.0 km/h 9.7 km/h 71% 0.0 mm FEW
07:45 12.3 °C 7.2 °C 1014.8 hPa SW 8.0 km/h 11.3 km/h 71% 0.0 mm FEW
07:50 12.3 °C 7.2 °C 1014.8 hPa SW 8.0 km/h 11.3 km/h 71% 0.0 mm FEW
07:55 12.3 °C 7.0 °C 1014.7 hPa SW 8.0 km/h 8.0 km/h 70% 0.0 mm FEW
08:00 12.3 °C 7.0 °C 1014.7 hPa SW 8.0 km/h 9.7 km/h 70% 0.0 mm FEW
08:05 12.3 °C 7.0 °C 1014.7 hPa WSW 3.2 km/h 9.7 km/h 70% 0.0 mm FEW
08:10 12.3 °C 7.2 °C 1015.0 hPa West 3.2 km/h 8.0 km/h 71% 0.0 mm FEW
08:15 12.2 °C 7.1 °C 1015.0 hPa West 3.2 km/h 8.0 km/h 71% 0.0 mm FEW
08:20 12.2 °C 7.1 °C 1015.0 hPa WNW 3.2 km/h 9.7 km/h 71% 0.0 mm FEW
08:25 12.2 °C 7.3 °C 1014.9 hPa WNW 4.8 km/h 11.3 km/h 72% 0.0 mm FEW
08:30 12.2 °C 7.3 °C 1014.9 hPa WNW 4.8 km/h 8.0 km/h 72% 0.0 mm FEW
08:35 12.2 °C 7.5 °C 1014.9 hPa WNW 4.8 km/h 8.0 km/h 73% 0.0 mm FEW
08:40 12.2 °C 7.5 °C 1015.2 hPa WNW 4.8 km/h 8.0 km/h 73% 0.0 mm FEW
08:45 12.1 °C 7.4 °C 1015.2 hPa WNW 3.2 km/h 8.0 km/h 73% 0.0 mm FEW
08:50 12.1 °C 7.4 °C 1015.2 hPa West 3.2 km/h 8.0 km/h 73% 0.0 mm FEW
08:55 12.0 °C 7.3 °C 1015.7 hPa WSW 3.2 km/h 3.2 km/h 73% 0.0 mm FEW
09:00 12.1 °C 7.8 °C 1015.7 hPa South 3.2 km/h 8.0 km/h 75% 0.0 mm FEW
09:05 12.1 °C 8.0 °C 1015.7 hPa ESE 3.2 km/h 4.8 km/h 76% 0.0 mm FEW
09:10 12.1 °C 8.0 °C 1015.7 hPa ESE 3.2 km/h 6.4 km/h 76% 0.0 mm FEW
09:15 11.9 °C 7.8 °C 1015.7 hPa SE 3.2 km/h 8.0 km/h 76% 0.0 mm FEW
09:20 11.8 °C 7.9 °C 1015.7 hPa SSE 3.2 km/h 8.0 km/h 77% 0.0 mm SCT
09:25 11.9 °C 8.0 °C 1016.0 hPa South 3.2 km/h 3.2 km/h 77% 0.0 mm SCT
09:30 11.9 °C 8.0 °C 1016.0 hPa South 3.2 km/h 3.2 km/h 77% 0.0 mm SCT
09:35 12.0 °C 8.3 °C 1016.0 hPa Calm   1.6 km/h 78% 0.0 mm SCT
09:40 12.1 °C 8.0 °C 1016.3 hPa Calm   4.8 km/h 76% 0.0 mm SCT
09:45 12.2 °C 7.7 °C 1016.3 hPa Calm   8.0 km/h 74% 0.0 mm SCT
09:50 12.4 °C 7.5 °C 1016.3 hPa Calm   6.4 km/h 72% 0.0 mm SCT
09:55 12.5 °C 7.6 °C 1016.4 hPa NW 3.2 km/h 4.8 km/h 72% 0.0 mm SCT
10:00 12.6 °C 7.9 °C 1016.4 hPa NW 3.2 km/h 6.4 km/h 73% 0.0 mm FEW
10:05 12.7 °C 7.6 °C 1016.4 hPa WNW 3.2 km/h 9.7 km/h 71% 0.0 mm SCT
10:10 12.8 °C 7.5 °C 1016.3 hPa WSW 3.2 km/h 11.3 km/h 70% 0.0 mm SCT
10:15 13.1 °C 7.1 °C 1016.3 hPa WSW 4.8 km/h 9.7 km/h 67% 0.0 mm SCT
10:20 13.2 °C 7.0 °C 1016.3 hPa WSW 4.8 km/h 9.7 km/h 66% 0.0 mm SCT
10:25 13.4 °C 6.9 °C 1016.5 hPa SW 4.8 km/h 11.3 km/h 65% 0.0 mm SCT
10:30 13.6 °C 6.9 °C 1016.5 hPa SW 4.8 km/h 11.3 km/h 64% 0.0 mm SCT
10:35 13.7 °C 6.8 °C 1016.5 hPa SW 8.0 km/h 9.7 km/h 63% 0.0 mm SCT
10:40 13.7 °C 6.8 °C 1016.6 hPa SW 8.0 km/h 8.0 km/h 63% 0.0 mm SCT
10:45 13.8 °C 6.9 °C 1016.6 hPa WSW 4.8 km/h 9.7 km/h 63% 0.0 mm SCT
10:50 13.9 °C 7.2 °C 1016.6 hPa WSW 4.8 km/h 9.7 km/h 64% 0.0 mm SCT
10:55 14.1 °C 7.4 °C 1016.5 hPa West 4.8 km/h 8.0 km/h 64% 0.0 mm SCT
11:00 14.2 °C 7.3 °C 1016.5 hPa WSW 4.8 km/h 11.3 km/h 63% 0.0 mm FEW
11:05 14.3 °C 7.3 °C 1016.5 hPa SW 4.8 km/h 11.3 km/h 63% 0.0 mm SCT
11:10 14.4 °C 7.2 °C 1016.5 hPa SW 4.8 km/h 11.3 km/h 62% 0.0 mm SCT
11:15 14.6 °C 7.4 °C 1016.5 hPa SW 8.0 km/h 11.3 km/h 62% 0.0 mm SCT
11:20 14.8 °C 7.6 °C 1016.5 hPa SW 8.0 km/h 14.5 km/h 62% 0.0 mm FEW
11:25 15.1 °C 7.8 °C 1016.5 hPa SW 8.0 km/h 14.5 km/h 62% 0.0 mm FEW
11:30 15.2 °C 7.9 °C 1016.5 hPa South 8.0 km/h 12.9 km/h 62% 0.0 mm FEW
11:35 15.2 °C 8.2 °C 1016.5 hPa SSE 8.0 km/h 14.5 km/h 63% 0.0 mm FEW
11:40 15.4 °C 8.2 °C 1016.6 hPa South 8.0 km/h 11.3 km/h 62% 0.0 mm FEW
11:45 15.6 °C 8.3 °C 1016.6 hPa SSW 8.0 km/h 12.9 km/h 62% 0.0 mm FEW
11:50 15.7 °C 8.4 °C 1016.6 hPa SSW 8.0 km/h 14.5 km/h 62% 0.0 mm FEW
11:55 15.8 °C 8.6 °C 1016.5 hPa SSW 9.7 km/h 14.5 km/h 62% 0.0 mm FEW
12:00 15.9 °C 8.4 °C 1016.5 hPa SSW 9.7 km/h 11.3 km/h 61% 0.0 mm FEW
12:05 16.1 °C 8.3 °C 1016.5 hPa SSW 8.0 km/h 11.3 km/h 60% 0.0 mm FEW
12:10 16.2 °C 7.9 °C 1016.6 hPa SW 8.0 km/h 16.1 km/h 58% 0.0 mm FEW
12:15 16.2 °C 7.7 °C 1016.6 hPa WSW 8.0 km/h 14.5 km/h 57% 0.0 mm FEW
12:20 16.3 °C 7.8 °C 1016.6 hPa WSW 8.0 km/h 16.1 km/h 57% 0.0 mm FEW
12:25 16.3 °C 7.8 °C 1016.5 hPa WSW 9.7 km/h 14.5 km/h 57% 0.0 mm FEW
12:30 16.4 °C 7.8 °C 1016.5 hPa WSW 9.7 km/h 12.9 km/h 57% 0.0 mm FEW
12:35 16.4 °C 7.8 °C 1016.5 hPa WSW 8.0 km/h 14.5 km/h 57% 0.0 mm FEW
12:40 16.5 °C 7.9 °C 1016.3 hPa WSW 8.0 km/h 9.7 km/h 57% 0.0 mm FEW
12:45 16.6 °C 8.1 °C 1016.3 hPa WSW 8.0 km/h 9.7 km/h 57% 0.0 mm FEW
12:50 16.6 °C 7.8 °C 1016.3 hPa SW 8.0 km/h 9.7 km/h 56% 0.0 mm FEW
12:55 16.7 °C 7.9 °C 1016.2 hPa SW 4.8 km/h 11.3 km/h 56% 0.0 mm FEW
13:00 16.8 °C 7.9 °C 1016.2 hPa SW 4.8 km/h 9.7 km/h 56% 0.0 mm FEW
13:05 16.8 °C 7.7 °C 1016.2 hPa SW 4.8 km/h 11.3 km/h 55% 0.0 mm FEW
13:10 16.9 °C 8.1 °C 1016.3 hPa SW 4.8 km/h 11.3 km/h 56% 0.0 mm FEW
13:15 17.1 °C 8.2 °C 1016.3 hPa SSW 8.0 km/h 9.7 km/h 56% 0.0 mm FEW
13:20 17.1 °C 8.0 °C 1016.3 hPa SW 8.0 km/h 14.5 km/h 55% 0.0 mm FEW
13:25 17.2 °C 8.1 °C 1016.0 hPa SW 4.8 km/h 9.7 km/h 55% 0.0 mm FEW
13:30 17.2 °C 7.8 °C 1016.0 hPa WSW 4.8 km/h 9.7 km/h 54% 0.0 mm FEW
13:35 17.2 °C 7.8 °C 1016.0 hPa SW 4.8 km/h 9.7 km/h 54% 0.0 mm FEW
13:40 17.3 °C 8.2 °C 1015.9 hPa SSW 4.8 km/h 8.0 km/h 55% 0.0 mm FEW
13:45 17.4 °C 8.3 °C 1015.9 hPa SSW 4.8 km/h 8.0 km/h 55% 0.0 mm FEW
13:50 17.6 °C 8.4 °C 1015.9 hPa SSW 4.8 km/h 8.0 km/h 55% 0.0 mm FEW
13:55 17.8 °C 8.4 °C 1015.7 hPa ESE 2.9 km/h 5.6 km/h 54% 0.0 mm FEW
14:00 17.8 °C 8.4 °C 1015.7 hPa SE 3.2 km/h 8.0 km/h 54% 0.0 mm FEW
14:05 18.0 °C 8.3 °C 1015.7 hPa South 3.2 km/h 8.0 km/h 53% 0.0 mm FEW
14:10 18.0 °C 8.0 °C 1015.6 hPa West 3.2 km/h 9.7 km/h 52% 0.0 mm FEW
14:15 18.1 °C 8.1 °C 1015.6 hPa WNW 8.0 km/h 9.7 km/h 52% 0.0 mm FEW
14:20 18.2 °C 8.4 °C 1015.6 hPa North 8.0 km/h 4.8 km/h 53% 0.0 mm FEW
14:25 18.3 °C 8.6 °C 1015.3 hPa NE 3.2 km/h 3.2 km/h 53% 0.0 mm FEW
14:30 18.6 °C 8.6 °C 1015.3 hPa NE 3.2 km/h 8.0 km/h 52% 0.0 mm FEW
14:35 18.8 °C 8.2 °C 1015.3 hPa East 2.3 km/h 7.4 km/h 50% 0.0 mm FEW
14:40 18.7 °C 7.8 °C 1015.2 hPa SE 1.6 km/h 8.0 km/h 49% 0.0 mm FEW
14:45 18.6 °C 8.6 °C 1015.2 hPa East 3.2 km/h 9.7 km/h 52% 0.0 mm FEW
14:50 18.6 °C 8.8 °C 1015.2 hPa East 3.2 km/h 8.0 km/h 53% 0.0 mm FEW
14:55 18.6 °C 8.6 °C 1015.2 hPa East 3.2 km/h 9.7 km/h 52% 0.0 mm FEW
15:00 18.6 °C 8.5 °C 1015.2 hPa East 3.2 km/h 9.7 km/h 52% 0.0 mm FEW
15:05 18.5 °C 8.7 °C 1015.2 hPa East 4.8 km/h 9.7 km/h 53% 0.0 mm FEW
15:10 18.6 °C 8.3 °C 1014.9 hPa East 4.8 km/h 9.7 km/h 51% 0.0 mm FEW
15:15 18.7 °C 7.8 °C 1014.9 hPa NE 4.8 km/h 4.8 km/h 49% 0.0 mm FEW
15:20 18.8 °C 8.2 °C 1014.9 hPa NNE 4.8 km/h 8.0 km/h 50% 0.0 mm FEW
15:25 19.0 °C 8.3 °C 1014.8 hPa NNE 3.2 km/h 8.0 km/h 50% 0.0 mm FEW
15:30 18.9 °C 8.0 °C 1014.8 hPa NE 3.2 km/h 11.3 km/h 49% 0.0 mm FEW
15:35 18.9 °C 7.0 °C 1014.8 hPa NE 8.0 km/h 11.3 km/h 46% 0.0 mm FEW
15:40 18.9 °C 7.3 °C 1014.8 hPa ENE 8.0 km/h 11.3 km/h 47% 0.0 mm FEW
15:45 18.9 °C 7.7 °C 1014.8 hPa ENE 4.8 km/h 12.9 km/h 48% 0.0 mm FEW
15:50 18.9 °C 7.7 °C 1014.8 hPa NE 4.8 km/h 12.9 km/h 48% 0.0 mm FEW
15:55 18.9 °C 7.7 °C 1014.7 hPa NE 8.0 km/h 11.3 km/h 48% 0.0 mm FEW
16:00 19.1 °C 7.8 °C 1014.7 hPa NE 8.0 km/h 14.5 km/h 48% 0.0 mm FEW
16:05 19.1 °C 8.1 °C 1014.7 hPa East 7.6 km/h 9.3 km/h 49% 0.0 mm FEW
16:10 19.1 °C 8.1 °C 1014.8 hPa NE 8.0 km/h 9.7 km/h 49% 0.0 mm FEW
16:15 19.2 °C 7.6 °C 1014.8 hPa NE 4.8 km/h 11.3 km/h 47% 0.0 mm FEW
16:20 19.2 °C 7.6 °C 1014.8 hPa NE 4.8 km/h 11.3 km/h 47% 0.0 mm FEW
16:25 19.2 °C 7.6 °C 1014.6 hPa NE 8.0 km/h 11.3 km/h 47% 0.0 mm FEW
16:30 19.2 °C 7.6 °C 1014.6 hPa NE 8.0 km/h 9.7 km/h 47% 0.0 mm FEW
16:35 19.2 °C 7.6 °C 1014.6 hPa NE 8.0 km/h 11.3 km/h 47% 0.0 mm FEW
16:40 19.2 °C 7.3 °C 1014.7 hPa NE 6.4 km/h 11.1 km/h 46% 0.0 mm FEW
16:45 19.2 °C 7.6 °C 1014.7 hPa NNE 8.0 km/h 11.3 km/h 47% 0.0 mm FEW
16:50 19.2 °C 7.6 °C 1014.7 hPa NE 8.0 km/h 9.7 km/h 47% 0.0 mm FEW
16:55 19.3 °C 7.4 °C 1014.6 hPa NE 4.8 km/h 11.3 km/h 46% 0.0 mm FEW
17:00 19.2 °C 7.7 °C 1014.6 hPa NNE 4.8 km/h 9.7 km/h 47% 0.0 mm FEW
17:05 19.3 °C 7.4 °C 1014.6 hPa NE 8.0 km/h 9.7 km/h 46% 0.0 mm FEW
17:10 19.3 °C 7.4 °C 1014.6 hPa ENE 8.0 km/h 11.3 km/h 46% 0.0 mm FEW
17:15 19.3 °C 7.1 °C 1014.6 hPa NE 8.0 km/h 9.7 km/h 45% 0.0 mm FEW
17:20 19.3 °C 6.7 °C 1014.6 hPa NE 8.0 km/h 8.0 km/h 44% 0.0 mm FEW
17:25 19.3 °C 6.7 °C 1014.7 hPa NE 3.2 km/h 9.7 km/h 44% 0.0 mm FEW
17:30 19.2 °C 6.9 °C 1014.7 hPa NE 3.2 km/h 11.3 km/h 45% 0.0 mm FEW
17:35 19.2 °C 6.9 °C 1014.7 hPa NE 8.0 km/h 9.7 km/h 45% 0.0 mm FEW
17:40 19.2 °C 6.9 °C 1014.6 hPa NE 8.0 km/h 11.3 km/h 45% 0.0 mm FEW
17:45 19.2 °C 7.3 °C 1014.6 hPa NNE 6.4 km/h 7.4 km/h 46% 0.0 mm FEW
17:50 19.2 °C 7.9 °C 1014.6 hPa NE 8.0 km/h 11.3 km/h 48% 0.0 mm FEW
17:55 19.1 °C 8.1 °C 1014.5 hPa NE 8.0 km/h 11.3 km/h 49% 0.0 mm FEW
18:00 19.1 °C 8.1 °C 1014.5 hPa NE 8.0 km/h 12.9 km/h 49% 0.0 mm FEW
18:05 19.0 °C 8.3 °C 1014.5 hPa NE 8.0 km/h 12.9 km/h 50% 0.0 mm FEW
18:10 19.0 °C 8.6 °C 1014.5 hPa NE 8.0 km/h 11.3 km/h 51% 0.0 mm FEW
18:15 18.9 °C 8.6 °C 1014.5 hPa NNE 8.0 km/h 11.3 km/h 51% 0.0 mm FEW
18:20 18.8 °C 8.4 °C 1014.5 hPa NNE 8.0 km/h 9.7 km/h 51% 0.0 mm FEW
18:25 18.8 °C 8.7 °C 1014.5 hPa NNE 8.0 km/h 11.3 km/h 52% 0.0 mm FEW
18:30 18.7 °C 8.6 °C 1014.5 hPa NE 8.0 km/h 11.3 km/h 52% 0.0 mm FEW
18:35 18.6 °C 8.6 °C 1014.5 hPa NE 8.0 km/h 14.5 km/h 52% 0.0 mm FEW
18:40 18.6 °C 8.8 °C 1014.5 hPa NE 8.0 km/h 11.3 km/h 53% 0.0 mm FEW
18:45 18.6 °C 8.8 °C 1014.5 hPa NE 8.0 km/h 11.3 km/h 53% 0.0 mm FEW
18:50 18.4 °C 9.2 °C 1014.5 hPa NE 8.0 km/h 14.5 km/h 55% 0.0 mm CLR
18:55 18.4 °C 9.4 °C 1014.7 hPa NE 8.0 km/h 11.3 km/h 56% 0.0 mm CLR
19:00 18.3 °C 9.6 °C 1014.7 hPa NNE 8.0 km/h 9.7 km/h 57% 0.0 mm FEW
19:05 18.2 °C 9.8 °C 1014.7 hPa NNE 8.0 km/h 9.7 km/h 58% 0.0 mm CLR
19:10 18.2 °C 9.8 °C 1014.7 hPa NE 8.0 km/h 11.3 km/h 58% 0.0 mm CLR
19:15 18.2 °C 10.1 °C 1014.7 hPa NE 8.0 km/h 9.7 km/h 59% 0.0 mm CLR
19:20 18.1 °C 10.2 °C 1014.7 hPa NE 8.0 km/h 8.0 km/h 60% 0.0 mm CLR
19:25 18.0 °C 10.4 °C 1014.6 hPa NE 4.8 km/h 9.7 km/h 61% 0.0 mm CLR
19:30 17.9 °C 10.5 °C 1014.6 hPa NE 4.8 km/h 9.7 km/h 62% 0.0 mm CLR
19:35 17.9 °C 10.5 °C 1014.6 hPa NE 8.0 km/h 9.7 km/h 62% 0.0 mm CLR
19:40 17.8 °C 10.7 °C 1014.9 hPa NE 8.0 km/h 9.7 km/h 63% 0.0 mm CLR
19:45 17.8 °C 10.7 °C 1014.9 hPa NNE 8.0 km/h 8.0 km/h 63% 0.0 mm CLR
19:50 17.8 °C 10.9 °C 1014.9 hPa NNE 8.0 km/h 8.0 km/h 64% 0.0 mm CLR
19:55 17.7 °C 11.1 °C 1015.1 hPa NNE 4.8 km/h 9.7 km/h 65% 0.0 mm CLR
20:00 17.6 °C 10.9 °C 1015.1 hPa North 4.8 km/h 8.0 km/h 65% 0.0 mm CLR
20:05 17.5 °C 10.9 °C 1015.1 hPa NNW 3.2 km/h 4.8 km/h 65% 0.0 mm CLR
20:10 17.5 °C 10.8 °C 1015.1 hPa NNW 3.2 km/h 8.0 km/h 65% 0.0 mm CLR
20:15 17.4 °C 10.7 °C 1015.1 hPa North 3.2 km/h 9.7 km/h 65% 0.0 mm CLR
20:20 17.4 °C 10.7 °C 1015.1 hPa North 3.2 km/h 6.4 km/h 65% 0.0 mm CLR
20:25 17.4 °C 10.7 °C 1015.2 hPa North 3.2 km/h 8.0 km/h 65% 0.0 mm CLR
20:30 17.3 °C 10.7 °C 1015.2 hPa NNE 3.2 km/h 8.0 km/h 65% 0.0 mm CLR
20:35 17.3 °C 10.7 °C 1015.2 hPa NNE 4.8 km/h 8.0 km/h 65% 0.0 mm CLR
20:40 17.2 °C 10.6 °C 1014.9 hPa NNE 4.8 km/h 9.7 km/h 65% 0.0 mm CLR
20:45 17.2 °C 10.8 °C 1014.9 hPa NNE 4.8 km/h 8.0 km/h 66% 0.0 mm CLR
20:50 17.1 °C 10.9 °C 1014.9 hPa North 4.8 km/h 9.7 km/h 67% 0.0 mm CLR
20:55 17.1 °C 10.7 °C 1014.8 hPa North 3.2 km/h 8.0 km/h 66% 0.0 mm CLR
21:00 17.0 °C 10.6 °C 1014.8 hPa NNE 3.2 km/h 8.0 km/h 66% 0.0 mm CLR
21:05 17.1 °C 10.7 °C 1014.8 hPa NE 4.8 km/h 9.7 km/h 66% 0.0 mm CLR
21:10 17.1 °C 10.7 °C 1014.6 hPa NE 4.8 km/h 9.7 km/h 66% 0.0 mm CLR
21:15 17.0 °C 10.8 °C 1014.6 hPa North 4.8 km/h 8.0 km/h 67% 0.0 mm CLR
21:20 16.9 °C 10.7 °C 1014.6 hPa NNW 4.8 km/h 4.8 km/h 67% 0.0 mm CLR
21:25 16.9 °C 10.7 °C 1014.3 hPa NNW 3.2 km/h 4.8 km/h 67% 0.0 mm CLR
21:30 16.9 °C 10.7 °C 1014.3 hPa NNE 3.2 km/h 4.8 km/h 67% 0.0 mm CLR
21:35 16.8 °C 10.9 °C 1014.3 hPa NNE 3.2 km/h 4.8 km/h 68% 0.0 mm CLR
21:40 16.8 °C 10.8 °C 1014.4 hPa NNE 3.2 km/h 3.2 km/h 68% 0.0 mm CLR
21:45 16.8 °C 10.6 °C 1014.4 hPa NNE 1.6 km/h 4.8 km/h 67% 0.0 mm CLR
21:50 16.7 °C 10.6 °C 1014.4 hPa NNE 2.3 km/h 3.7 km/h 67% 0.0 mm CLR
21:55 16.7 °C 10.6 °C 1014.7 hPa NNE 1.6 km/h 3.2 km/h 67% 0.0 mm CLR
22:00 16.8 °C 10.6 °C 1014.7 hPa North 1.6 km/h 8.0 km/h 67% 0.0 mm CLR
22:05 16.8 °C 10.4 °C 1014.7 hPa WSW 3.2 km/h 8.0 km/h 66% 0.0 mm CLR
22:10 16.8 °C 10.2 °C 1015.1 hPa SW 3.2 km/h 6.4 km/h 65% 0.0 mm CLR
22:15 16.9 °C 10.0 °C 1015.1 hPa SW 3.2 km/h 11.3 km/h 64% 0.0 mm CLR
22:20 16.9 °C 10.1 °C 1015.1 hPa SW 3.2 km/h 9.7 km/h 64% 0.0 mm CLR
22:25 16.9 °C 10.1 °C 1015.3 hPa SW 4.8 km/h 8.0 km/h 64% 0.0 mm CLR
22:30 16.9 °C 9.8 °C 1015.3 hPa SW 4.8 km/h 6.4 km/h 63% 0.0 mm CLR
22:35 17.0 °C 9.9 °C 1015.3 hPa West 3.2 km/h 9.7 km/h 63% 0.0 mm CLR
22:40 17.0 °C 10.1 °C 1015.0 hPa NE 2.9 km/h 5.6 km/h 64% 0.0 mm CLR
22:45 17.1 °C 10.2 °C 1015.0 hPa NNW 3.2 km/h 8.0 km/h 64% 0.0 mm CLR
22:50 17.0 °C 10.1 °C 1015.0 hPa West 3.2 km/h 4.8 km/h 64% 0.0 mm -RA
22:55 16.9 °C 10.1 °C 1015.1 hPa West 2.9 km/h 3.7 km/h 64% 0.0 mm CLR
23:00 16.9 °C 9.8 °C 1015.1 hPa West 3.2 km/h 8.0 km/h 63% 0.0 mm CLR
23:05 16.9 °C 9.8 °C 1015.1 hPa West 3.2 km/h 8.0 km/h 63% 0.0 mm CLR
23:10 16.9 °C 9.8 °C 1015.5 hPa WSW 3.2 km/h 8.0 km/h 63% 0.0 mm -RA
23:15 16.9 °C 9.8 °C 1015.5 hPa West 3.2 km/h 6.4 km/h 63% 0.0 mm CLR
23:20 16.9 °C 9.8 °C 1015.5 hPa NNW 3.2 km/h 4.8 km/h 63% 0.0 mm -RA
23:25 16.9 °C 9.8 °C 1015.6 hPa North 3.2 km/h 8.0 km/h 63% 0.0 mm CLR
23:30 17.0 °C 10.8 °C 1015.6 hPa East 3.2 km/h 8.0 km/h 67% 0.0 mm -RA
23:35 17.0 °C 11.1 °C 1015.6 hPa SE 4.8 km/h 8.0 km/h 68% 0.0 mm CLR
23:40 17.0 °C 11.3 °C 1015.3 hPa SE 4.8 km/h 9.7 km/h 69% 0.0 mm -RA
23:45 16.9 °C 11.4 °C 1015.3 hPa SSE 3.9 km/h 5.6 km/h 70% 0.0 mm CLR
23:50 16.8 °C 11.5 °C 1015.3 hPa SSE 3.2 km/h 8.0 km/h 71% 0.0 mm FEW
23:55 16.8 °C 11.5 °C 1015.2 hPa ESE 3.2 km/h 1.6 km/h 71% 0.0 mm FEW
Murcia-Puente Tocinos, España
Compliments of Weather Underground - 3.25 mb

La estación de MeteoMurcia.com, publica sus datos en los siguientes proyectos:

Weather Underground PWS IMURCIAP2 Meteoclimatic www.awekas.at

W3Counter
Web Analytics